Location: Coupvray
(48.8929°N, 2.7967°E)
Time: 04:12:13
(UTC+00:00)

Cosmos 1980 Rocket - Pass Details

Date: 14 July 2020
Orbit: 828 x 851 km, 71.0° (Epoch: 06 August)

Event Time Altitude Azimuth Distance (km) Brightness Sun altitude
Rises 01:39:07 0° 333° (NNW) 3,430 5.9 -15.7°
Reaches altitude 10° 01:41:39 10° 338° (NNW) 2,490 5.2 -15.6°
Maximum altitude 01:47:16 54° 56° (NE) 1,033 3.0 -15.1°
Drops below altitude 10° 01:52:48 10° 133° (SE) 2,468 4.5 -14.7°
Sets 01:55:18 0° 138° (SE) 3,397 5.2 -14.5°
